GW0687 Weather Reports


time (UTC)temp
C
wind
direction
speed
KPH
gust
KPH
rain 1hr
cm
rain 24hr
cm
rain mn
cm
humidity
%
barometer
mb
20260504100530 13 0.0 0.0 0.00 0.00 0.00 45 996.3
20260504081529 12 0.0 0.0 0.00 0.00 0.00 45 998.4
20260504081031 12 0.0 0.0 0.00 0.00 0.00 45 998.4
20260504080529 12 0.0 0.0 0.00 0.00 0.00 45 998.5
20260504045032 12 0.0 0.0 0.00 0.00 0.00 46 1002.3
20260504044533 12 0.0 0.0 0.00 0.00 0.00 46 1002.2
20260504043533 12 0.0 0.0 0.00 0.00 0.00 47 1002.4
20260504043035 12 0.0 0.0 0.00 0.00 0.00 47 1002.5
20260504042534 12 0.0 0.0 0.00 0.00 0.00 48 1002.6
20260504042034 12 0.0 0.0 0.00 0.00 0.00 48 1002.7
20260504041531 12 0.0 0.0 0.00 0.00 0.00 48 1002.7
20260504041040 12 0.0 0.0 0.00 0.00 0.00 49 1002.9
20260504040536 12 0.0 0.0 0.00 0.00 0.00 50 1003.0
20260504035530 12 0.0 0.0 0.00 0.00 0.00 52 1003.3
20260504035031 12 0.0 0.0 0.00 0.00 0.00 52 1003.4
20260504034531 12 0.0 0.0 0.00 0.00 0.00 52 1003.5
20260504033532 12 0.0 0.0 0.00 0.00 0.00 54 1003.7
20260504032532 12 0.0 0.0 0.00 0.00 0.00 55 1003.8
20260504031531 12 0.0 0.0 0.00 0.00 0.00 51 1003.8
20260504031031 12 0.0 0.0 0.00 0.00 0.00 49 1004.0
20260504030532 13 0.0 0.0 0.00 0.00 0.00 47 1004.0
20260504030033 13 0.0 0.0 0.00 0.00 0.00 48 1004.0
20260504025533 13 0.0 0.0 0.00 0.00 0.00 46 1004.1
20260504025033 13 0.0 0.0 0.00 0.00 0.00 45 1004.1
20260504024531 13 0.0 0.0 0.00 0.00 0.00 44 1004.1
20260504023530 13 0.0 0.0 0.00 0.00 0.00 42 1004.1
20260504023032 13 0.0 0.0 0.00 0.00 0.00 42 1004.1
20260504022530 14 0.0 0.0 0.00 0.00 0.00 41 1004.2
20260504022031 14 0.0 0.0 0.00 0.00 0.00 42 1004.1
20260504021531 14 0.0 0.0 0.00 0.00 0.00 40 1004.2
20260504021043 15 0.0 0.0 0.00 0.00 0.00 40 1004.2
20260504020531 15 0.0 0.0 0.00 0.00 0.00 40 1004.2
20260504020036 15 0.0 0.0 0.00 0.00 0.00 37 1004.1
20260504015534 15 0.0 0.0 0.00 0.00 0.00 37 1004.2
20260504015033 15 0.0 0.0 0.00 0.00 0.00 36 1004.2
20260504014532 16 0.0 0.0 0.00 0.00 0.00 35 1004.2
20260504014032 16 0.0 0.0 0.00 0.00 0.00 35 1004.3
20260504013531 16 0.0 0.0 0.00 0.00 0.00 35 1004.3
20260504013032 17 0.0 0.0 0.00 0.00 0.00 34 1004.3
20260504012532 17 0.0 0.0 0.00 0.00 0.00 33 1004.4
20260504012034 17 0.0 0.0 0.00 0.00 0.00 31 1004.3
20260504011532 17 0.0 0.0 0.00 0.00 0.00 32 1004.5
20260504011033 18 0.0 0.0 0.00 0.00 0.00 31 1004.4
20260504010531 18 0.0 0.0 0.00 0.00 0.00 31 1004.5
20260504010033 18 0.0 0.0 0.00 0.00 0.00 31 1004.5
20260504004031 18 0.0 0.0 0.00 0.00 0.00 31 1004.4
20260504003531 18 0.0 0.0 0.00 0.00 0.00 30 1004.5
20260504003031 18 0.0 0.0 0.00 0.00 0.00 30 1004.5
20260504002031 18 0.0 0.0 0.00 0.00 0.00 29 1004.6
20260504001531 18 0.0 0.0 0.00 0.00 0.00 29 1004.6
20260504001032 18 0.0 0.0 0.00 0.00 0.00 28 1004.6
20260504000531 19 0.0 0.0 0.00 0.00 0.00 29 1004.6
20260503235530 19 0.0 0.0 0.00 0.00 0.00 29 1004.7
20260503235033 19 0.0 0.0 0.00 0.00 0.00 27 1004.5
20260503234531 19 0.0 0.0 0.00 0.00 0.00 27 1004.6
20260503234032 19 0.0 0.0 0.00 0.00 0.00 26 1004.6
20260503232530 20 0.0 0.0 0.00 0.00 0.00 25 1004.7
20260503232031 20 0.0 0.0 0.00 0.00 0.00 26 1004.8
20260503231531 20 0.0 0.0 0.00 0.00 0.00 25 1004.8
20260503231032 20 0.0 0.0 0.00 0.00 0.00 27 1004.8
20260503230531 20 0.0 0.0 0.00 0.00 0.00 26 1004.8
20260503230031 20 0.0 0.0 0.00 0.00 0.00 28 1004.9
20260503225530 20 0.0 0.0 0.00 0.00 0.00 26 1004.9
20260503225033 20 0.0 0.0 0.00 0.00 0.00 26 1005.0
20260503224530 20 0.0 0.0 0.00 0.00 0.00 26 1005.0
20260503224033 20 0.0 0.0 0.00 0.00 0.00 26 1005.0
20260503223531 20 0.0 0.0 0.00 0.00 0.00 24 1005.0
20260503223040 20 0.0 0.0 0.00 0.00 0.00 26 1005.0
20260503222530 20 0.0 0.0 0.00 0.00 0.00 26 1005.1
20260503222032 20 0.0 0.0 0.00 0.00 0.00 26 1005.0
20260503221530 20 0.0 0.0 0.00 0.00 0.00 27 1005.0
20260503221032 20 0.0 0.0 0.00 0.00 0.00 26 1005.1
20260503220531 20 0.0 0.0 0.00 0.00 0.00 27 1005.1
20260503220032 20 0.0 0.0 0.00 0.00 0.00 26 1005.1
20260503215532 20 0.0 0.0 0.00 0.00 0.00 26 1005.2
20260503215031 20 0.0 0.0 0.00 0.00 0.00 27 1005.3
20260503214531 20 0.0 0.0 0.00 0.00 0.00 26 1005.3
20260503214031 20 0.0 0.0 0.00 0.00 0.00 26 1005.2
20260503213531 20 0.0 0.0 0.00 0.00 0.00 27 1005.3
20260503213031 20 0.0 0.0 0.00 0.00 0.00 27 1005.3
20260503212530 20 0.0 0.0 0.00 0.00 0.00 25 1005.2
20260503211530 20 0.0 0.0 0.00 0.00 0.00 27 1005.3
20260503211031 20 0.0 0.0 0.00 0.00 0.00 29 1005.3
20260503210530 20 0.0 0.0 0.00 0.00 0.00 29 1005.3
20260503210034 20 0.0 0.0 0.00 0.00 0.00 27 1005.3
20260503205531 20 0.0 0.0 0.00 0.00 0.00 28 1005.4
20260503205032 20 0.0 0.0 0.00 0.00 0.00 27 1005.4
20260503204530 20 0.0 0.0 0.00 0.00 0.00 29 1005.3
20260503204031 20 0.0 0.0 0.00 0.00 0.00 27 1005.4
20260503203530 20 0.0 0.0 0.00 0.00 0.00 27 1005.3
20260503203031 20 0.0 0.0 0.00 0.00 0.00 27 1005.4
20260503202530 20 0.0 0.0 0.00 0.00 0.00 29 1005.4
20260503202031 20 0.0 0.0 0.00 0.00 0.00 28 1005.6
20260503201531 20 0.0 0.0 0.00 0.00 0.00 28 1005.6
20260503201031 20 0.0 0.0 0.00 0.00 0.00 27 1005.6
20260503200532 20 0.0 0.0 0.00 0.00 0.00 30 1005.6
20260503200034 20 0.0 0.0 0.00 0.00 0.00 30 1005.6
20260503195531 20 0.0 0.0 0.00 0.00 0.00 28 1005.7
20260503195032 20 0.0 0.0 0.00 0.00 0.00 28 1005.7
20260503194532 20 0.0 0.0 0.00 0.00 0.00 28 1005.7
20260503193531 20 0.0 0.0 0.00 0.00 0.00 29 1006.0
20260503193033 19 0.0 0.0 0.00 0.00 0.00 26 1006.0
20260503192531 20 0.0 0.0 0.00 0.00 0.00 26 1006.1
20260503192031 19 0.0 0.0 0.00 0.00 0.00 28 1006.0
20260503191530 19 0.0 0.0 0.00 0.00 0.00 29 1006.1
20260503191031 19 0.0 0.0 0.00 0.00 0.00 30 1006.1
20260503190031 20 0.0 0.0 0.00 0.00 0.00 30 1006.0
20260503185530 19 0.0 0.0 0.00 0.00 0.00 33 1006.0
20260503185031 19 0.0 0.0 0.00 0.00 0.00 37 1006.2
20260503184032 19 0.0 0.0 0.00 0.00 0.00 35 1006.1
20260503183531 19 0.0 0.0 0.00 0.00 0.00 35 1006.3
20260503183031 19 0.0 0.0 0.00 0.00 0.00 36 1006.3
20260503182531 19 0.0 0.0 0.00 0.00 0.00 35 1006.2
20260503182032 19 0.0 0.0 0.00 0.00 0.00 37 1006.3
20260503181032 19 0.0 0.0 0.00 0.00 0.00 39 1006.3
20260503180530 19 0.0 0.0 0.00 0.00 0.00 39 1006.3
20260503180034 19 0.0 0.0 0.00 0.00 0.00 39 1006.3
20260503175530 19 0.0 0.0 0.00 0.00 0.00 40 1006.3
20260503175038 19 0.0 0.0 0.00 0.00 0.00 40 1006.5
20260503174532 18 0.0 0.0 0.00 0.00 0.00 40 1006.6
20260503174031 18 0.0 0.0 0.00 0.00 0.00 41 1006.5
20260503173530 18 0.0 0.0 0.00 0.00 0.00 40 1006.6
20260503173032 18 0.0 0.0 0.00 0.00 0.00 43 1006.4
20260503172531 18 0.0 0.0 0.00 0.00 0.00 42 1006.5
20260503172031 18 0.0 0.0 0.00 0.00 0.00 40 1006.4
20260503171531 18 0.0 0.0 0.00 0.00 0.00 41 1006.6
20260503171032 18 0.0 0.0 0.00 0.00 0.00 41 1006.6
20260503170532 18 0.0 0.0 0.00 0.00 0.00 41 1006.7
20260503150530 16 0.0 0.0 0.00 0.00 0.00 47 1006.2
20260503131033 12 0.0 0.0 0.00 0.00 0.00 55 1005.5
20260503130531 12 0.0 0.0 0.00 0.00 0.00 56 1005.5
20260503110529 10 0.0 0.0 0.00 0.00 0.00 55 1004.3